032  
ASUS43 KDMX 200806  
RWRIA  
 
WEATHER ROUNDUP FOR IOWA  
NATIONAL WEATHER SERVICE DES MOINES IA  
300 AM CDT SAT OCT 20 2018  
 
NOTE: "FAIR" INDICATES FEW OR NO CLOUDS BELOW 12,000 FEET WITH NO  
SIGNIFICANT WEATHER AND/OR S TO VISIBILITY
.  
 
* - THESE STATIONS ARE NOT NWS STATIONS...THUS NOT UNDER NWS  
QUALITY CONTROL. THEY ALSO DO NOT REPORT WEATHER SUCH  
AS PRECIPITATION OR FOG.
 
 
IAZ001>003-012>014-020>022-031>034-043>046-200900-  
NORTHWEST IOWA  
 
CITY SKY/WX TMP DP RH WIND PRES REMARKS
 
CARROLL * CLEAR 45 36 70 W10 30.12R  
CHEROKEE * CLEAR 42 32 68 W8 30.13R  
DENISON * PTCLDY 41 34 75 CALM 30.16S  
LE MARS * CLEAR 41 32 70 W5 30.15R  
ORANGE CITY * CLEAR 41 34 75 W8 30.13R  
SHELDON * N/A 41 34 75 W10 30.10R  
SIOUX CITY CLEAR 42 31 64 W7 30.17S  
SPENCER CLEAR 43 33 68 W13 30.08S  
STORM LAKE * CLEAR 39 32 75 W12 30.11S WCI 32  

 
 
IAZ055>058-069>071-079>083-090>094-200900-  
SOUTHWEST IOWA  
 
CITY SKY/WX TMP DP RH WIND PRES REMARKS
 
ATLANTIC * CLEAR 45 36 70 W10 30.15S  
AUDUBON * CLEAR 46 34 61 NW5 30.14S  
CLARINDA * PTCLDY 41 36 81 W3 30.19R  
COUNCIL BLFS * CLEAR 45 32 61 W7 30.17S  
CRESTON * CLEAR 41 34 75 W9 30.14S  
HARLAN * CLEAR 45 34 65 W12 30.16R  
LAMONI CLEAR 45 36 70 W9 30.12F  
RED OAK * CLEAR 43 36 75 W8 30.17S  
SHENANDOAH * N/A 41 36 81 W6 30.19R  

 
 
IAZ047>049-059>061-072>074-084-200900-  
CENTRAL IOWA  
 
CITY SKY/WX TMP DP RH WIND PRES REMARKS
 
AMES CLEAR 47 35 63 W13 30.07R  
ANKENY * CLEAR 46 36 66 W10 30.09S  
BOONE * CLEAR 46 34 61 NW13 30.07R  
CHARITON * CLEAR 45 36 70 W9 30.09S  
DES MOINES CLEAR 48 34 58 W13 30.09S  
GRINNELL* CLEAR 44 36 71 W10 30.06R  
KNOXVILLE * CLEAR 45 37 76 W9 30.06S  
MARSHALLTOWN CLEAR 43 36 76 W9 30.03S  
NEWTON * PTCLDY 45 36 70 W13 30.06S  
PELLA * CLEAR 49 35 57 W10 30.07F  
PERRY * FAIR 44 33 65 CALM 30.10R  

 
 
IAZ004>006-015-016-023>025-035-036-200900-  
NORTH CENTRAL IOWA  
 
CITY SKY/WX TMP DP RH WIND PRES REMARKS
 
ALGONA * CLEAR 43 34 70 W14 30.04S  
CLARION * CLEAR 43 34 70 W12 30.04S  
ESTHERVILLE CLEAR 44 32 62 W13 30.04S  
FORT DODGE * CLEAR 45 34 65 W8 30.08S  
MASON CITY CLEAR 41 35 79 W14 30.01F  
FOREST CITY * FAIR 41 36 81 W9 30.01S  
WEBSTER CITY * CLEAR 46 34 61 W10 30.04S  
IOWA FALLS * FAIR 45 36 69 W10 30.04S  

 
 
IAZ007>011-017>019-026>030-037>042-050>054-066-200900-  
NORTHEAST IOWA  
 
CITY SKY/WX TMP DP RH WIND PRES REMARKS
 
CEDAR RAPIDS FAIR 44 35 70 W9 29.99S  
CHARLES CITY * FAIR 43 34 70 W13 29.98S  
CLINTON * FAIR 40 36 86 W8 29.96S WCI 34  
DECORAH * FAIR 43 36 75 W5 29.93S  
DUBUQUE FAIR 42 35 76 W6 29.94S  
MONTICELLO * FAIR 45 36 70 NW7 29.96S  
OELWEIN * FAIR 45 36 70 W13 29.97F  
WATERLOO FAIR 46 34 62 W8 29.99S  

 
 
IAZ064-065-067-068-078-200900-  
EAST CENTRAL IOWA  
 
CITY SKY/WX TMP DP RH WIND PRES REMARKS
 
DAVENPORT FAIR 43 36 76 W8 29.99S  
IOWA CITY FAIR 44 35 70 W9 30.01S  
MT. PLEASANT * CLEAR 46 37 71 W8 30.03S  
MUSCATINE * FAIR 48 36 61 W13 30.00S  
QUAD CITIES FAIR 47 37 68 W10 29.97S  

 
 
IAZ062-063-075>077-085>089-095>099-200900-  
SOUTHEAST IOWA  
 
CITY SKY/WX TMP DP RH WIND PRES REMARKS
 
BURLINGTON CLEAR 48 36 63 W7 30.02S  
FAIRFIELD * CLEAR 45 36 70 W10 30.04S  
FORT MADISON * CLEAR 48 39 71 W8 30.04S  
KEOKUK * CLEAR 50 41 71 NW10 30.04S  
OSKALOOSA * FAIR 40 35 83 W7 30.06S WCI 35  
CENTERVILLE * FAIR 45 36 70 W8 30.10S  
OTTUMWA CLEAR 43 37 79 W9 30.06S  
WASHINGTON * CLEAR 46 39 76 W9 30.03S  

 
 
ABBREVIATIONS USED IN REMARKS  
TC - TEMPERATURES IN CELSIUS  
WCI - WIND CHILL INDEX  
HX - HEAT INDEX  
VSB - VISIBILITY  

 
 
 
 
CLICK HERE TO GO TO PREVIOUS BULLETINS.

The Nexlab IA Page Main Text Page